Home > Weather > Baghlan > Past weeks

Flag for Afghanistan Past Weather in Baghlan, Afghanistan — Yesterday and Last 2 Weeks

Now
77 °F

Sunny.


Feels Like: 78 °F
Forecast: 67 / 97 °F
Wind: 6 mph from West

Location: Termez Airport

Current Time: Aug 26, 2016 at 9:54:29 AM

Latest Report: Aug 26, 2016 at 9:00 AM


Visibility: 10 mi

Pressure: 29.95 "Hg (28.17 "Hg at 536m altitude)

Humidity: 32%

Dew Point: 45 °F

Location of BaghlanLocation

Past Weather in Baghlan — Graph

°F

Baghlan Temperature Yesterday

Maximum temperature yesterday: 95 °F (at 2:30 PM)
Minimum temperature yesterday: 64 °F (at 4:00 AM)
Average temperature yesterday: 81 °F

High & Low Weather Summary for the Past Weeks

 TemperatureHumidityPressure
High104 °F (Aug 11, 3:30 PM)73% (Aug 21, 5:30 AM)29.95 "Hg (Aug 21, 5:30 AM)
Low63 °F (Aug 17, 5:30 AM)8% (Aug 14, 1:30 PM)29.56 "Hg (Aug 11, 4:30 PM)
Average84 °F26%29.72 "Hg
* Reported Aug 11 8:30 AM — Aug 26 8:30 AM, Baghlan, Weather by CustomWeather, © 2016

Note: Actual official high and low records may vary slightly from our data, if they occured in-between our weather recording intervals... More about our weather records

Advertising

Baghlan Weather History for the Previous 24 Hours

Scroll right to see more
 ConditionsComfort  
Time TempWeatherWind HumidityBarometerVisibility
8:30 AM
Fri, Aug 26
75 °FPassing clouds.3 mph39%29.95 "HgN/A
8:00 AM72 °FPassing clouds.3 mph47%29.95 "HgN/A
7:30 AM70 °FPassing clouds.3 mph46%29.92 "HgN/A
7:00 AM68 °FSunny.5 mph35%29.92 "Hg10 mi
6:30 AM68 °FSunny.5 mph33%29.92 "Hg10 mi
6:00 AM66 °FSunny.6 mph32%29.92 "Hg10 mi
5:30 AM64 °FSunny.6 mph34%29.89 "Hg10 mi
5:00 AM68 °FClear.3 mph28%29.89 "Hg10 mi
4:30 AM68 °FClear.No wind28%29.89 "Hg10 mi
3:30 AM68 °FClear.1 mph33%29.86 "Hg10 mi
3:00 AM68 °FClear.1 mph40%29.86 "Hg10 mi
2:30 AM68 °FClear.1 mph40%29.86 "Hg10 mi
2:00 AM68 °FClear.2 mph38%29.86 "Hg10 mi
1:30 AM70 °FClear.2 mph33%29.86 "Hg10 mi
1:00 AM70 °FPassing clouds.3 mph43%29.86 "HgN/A
12:30 AM75 °FClear.2 mph22%29.86 "Hg10 mi
12:00 AM75 °FClear.2 mph22%29.86 "Hg10 mi
11:30 PM
Thu, Aug 25
77 °FClear.5 mph19%29.86 "Hg10 mi
11:00 PM75 °FClear.7 mph22%29.86 "Hg10 mi
10:30 PM75 °FClear.7 mph24%29.86 "Hg10 mi
10:00 PM75 °FClear.8 mph24%29.86 "Hg10 mi
9:30 PM77 °FClear.8 mph22%29.86 "Hg10 mi
9:00 PM79 °FClear.8 mph20%29.86 "Hg10 mi
8:30 PM77 °FClear.7 mph28%29.86 "Hg10 mi
8:00 PM81 °FClear.7 mph24%29.83 "Hg10 mi
7:30 PM82 °FClear.5 mph25%29.83 "Hg10 mi
7:00 PM86 °FClear.2 mph22%29.83 "Hg10 mi
6:30 PM88 °FSunny.2 mph21%29.83 "Hg10 mi
6:00 PM88 °FSunny.5 mph19%29.83 "Hg10 mi
5:30 PM91 °FSunny.3 mph15%29.83 "Hg10 mi
5:00 PM93 °FSunny.6 mph14%29.83 "Hg10 mi
4:30 PM93 °FSunny.7 mph13%29.83 "Hg10 mi
4:00 PM95 °FSunny.6 mph12%29.83 "Hg10 mi
3:30 PM95 °FPassing clouds.5 mph11%29.83 "HgN/A
3:00 PM95 °FPassing clouds.6 mph12%29.83 "HgN/A
2:30 PM95 °FPassing clouds.7 mph11%29.83 "HgN/A
2:00 PM93 °FPassing clouds.5 mph12%29.86 "HgN/A
1:30 PM93 °FPassing clouds.6 mph13%29.86 "HgN/A
1:00 PM93 °FPassing clouds.7 mph13%29.86 "HgN/A
12:30 PM93 °FPassing clouds.7 mph14%29.89 "HgN/A
12:00 PM91 °FPassing clouds.8 mph14%29.89 "HgN/A
11:30 AM90 °FSunny.9 mph14%29.89 "Hg10 mi
11:00 AM88 °FPassing clouds.9 mph16%29.89 "HgN/A
10:30 AM86 °FPassing clouds.8 mph19%29.92 "HgN/A
10:00 AM84 °FPassing clouds.9 mph20%29.92 "HgN/A
9:30 AM81 °FSunny.9 mph24%29.92 "Hg10 mi
9:00 AM79 °FSunny.12 mph24%29.92 "Hg10 mi
Weather by CustomWeather, © 2016

See weather overviewHow to use our weather pages